[Date Prev][Date Next][Thread Prev][Thread Next] - [Date Index][Thread Index][Author Index]
2 Line ISS Keps 6-16
- Subject: [sarex] 2 Line ISS Keps 6-16
- From: "Dave Larsen PhD" <doc@xxxxxxxxxxx>
- Date: Wed, 16 Jun 2004 03:51:40 -0700
ISS
1 25544U 98067A 04168.08263889 .00012026 00000-0 10676-3 0 9986
2 25544 51.6330 331.3710 0005044 243.7250 275.2316 15.69020353318141
----
Via the sarex mailing list at AMSAT.ORG courtesy of AMSAT-NA.
To unsubscribe, send "unsubscribe sarex" to Majordomo@amsat.org
AMSAT Home